Home   Weather   United Kingdom   Haywards Heath   Past weeks
Flag for United Kingdom

Past Weather in Haywards Heath, England, United Kingdom — Yesterday and Last 2 Weeks

Currently: 59 °F. Passing clouds. (Weather station: London / Gatwick Airport, United Kingdom). See more current weather

Past Weather in Haywards Heath — Graph

°F

Haywards Heath Temperature Yesterday

Maximum temperature yesterday: 61 °F (at 12:50 pm)
Minimum temperature yesterday: 46 °F (at 10:20 pm)
Average temperature yesterday: 54 °F

High & Low Weather Summary for the Past Weeks

 TemperatureHumidityPressure
High66 °F (Oct 19, 1:20 pm)100% (Oct 11, 10:50 pm)30.42 "Hg (Oct 11, 10:50 pm)
Low39 °F (Oct 21, 11:20 pm)54% (Oct 21, 1:20 pm)29.12 "Hg (Oct 20, 9:50 pm)
Average54 °F85%30.07 "Hg
* Reported Oct 11 6:20 pm — Oct 26 6:50 pm, Haywards Heath. Weather by CustomWeather, © 2021

Note: Actual official high and low records may vary slightly from our data, if they occured in-between our weather recording intervals... More about our weather records

Haywards Heath Weather History for the Previous 24 Hours

Scroll right to see more
 ConditionsComfort  
Time TempWeatherWind HumidityBarometerVisibility
6:50 pm
Tue, Oct 26
59 °FPassing clouds.10 mph82%30.09 "HgN/A
6:20 pm59 °FPassing clouds.9 mph82%30.09 "HgN/A
5:50 pm59 °FPartly cloudy.9 mph82%30.09 "Hg6 mi
5:20 pm61 °FScattered clouds.12 mph77%30.09 "HgN/A
4:50 pm61 °FPartly sunny.10 mph77%30.07 "HgN/A
4:20 pm61 °FPartly sunny.10 mph77%30.07 "HgN/A
3:50 pm61 °FBroken clouds.12 mph83%30.07 "HgN/A
3:20 pm61 °FBroken clouds.12 mph83%30.07 "HgN/A
2:50 pm61 °FBroken clouds.12 mph83%30.07 "HgN/A
2:20 pm63 °FPartly sunny.12 mph77%30.07 "HgN/A
1:50 pm63 °FScattered clouds.10 mph77%30.07 "HgN/A
1:20 pm61 °FScattered clouds.10 mph83%30.09 "HgN/A
12:50 pm59 °FBroken clouds.7 mph88%30.09 "HgN/A
12:20 pm59 °FBroken clouds.10 mph88%30.09 "HgN/A
11:50 am59 °FScattered clouds.8 mph82%30.07 "HgN/A
11:20 am59 °FScattered clouds.8 mph82%30.07 "HgN/A
10:50 am57 °FScattered clouds.9 mph82%30.09 "HgN/A
10:20 am55 °FScattered clouds.7 mph88%30.09 "HgN/A
9:50 am54 °FPassing clouds.6 mph88%30.09 "HgN/A
9:20 am52 °FSunny.7 mph94%30.09 "Hg10 mi
8:50 am52 °FSunny.7 mph94%30.09 "Hg10 mi
8:20 am50 °FPassing clouds.6 mph94%30.09 "HgN/A
7:50 am50 °FPassing clouds.8 mph94%30.07 "HgN/A
7:20 am50 °FPassing clouds.8 mph94%30.07 "HgN/A
6:50 am52 °FPassing clouds.7 mph94%30.07 "HgN/A
6:20 am52 °FPassing clouds.6 mph94%30.04 "HgN/A
5:50 am54 °FPassing clouds.10 mph88%30.04 "HgN/A
5:20 am54 °FPassing clouds.9 mph94%30.04 "HgN/A
4:50 am52 °FPassing clouds.3 mph94%30.04 "HgN/A
4:20 am50 °FPassing clouds.3 mph94%30.04 "HgN/A
3:50 am50 °FPartly cloudy.2 mph94%30.04 "HgN/A
3:20 am50 °FPassing clouds.No wind94%30.04 "HgN/A
2:50 am50 °FPassing clouds.2 mph94%30.04 "HgN/A
2:20 am50 °FPassing clouds.3 mph94%30.07 "HgN/A
1:50 am48 °FClear.6 mph100%30.07 "Hg10 mi
12:50 am46 °FFog.3 mph93%30.04 "Hg6 mi
12:20 am46 °FFog.2 mph93%30.04 "HgN/A
11:50 pm
Mon, Oct 25
46 °FClear.2 mph100%30.07 "Hg10 mi
11:20 pm46 °FClear.2 mph100%30.04 "Hg10 mi
10:50 pm46 °FClear.2 mph100%30.04 "Hg10 mi
10:20 pm46 °FClear.2 mph93%30.04 "Hg10 mi
9:50 pm48 °FClear.2 mph94%30.04 "Hg10 mi
9:20 pm48 °FClear.1 mph94%30.04 "Hg10 mi
8:20 pm50 °FClear.3 mph94%30.04 "Hg10 mi
Weather by CustomWeather, © 2021

See weather overview